Theta_e
353 351 352 351 350 352 353 349 353 352 354 353 352 353 349 354 353 351 349 351 351 353 349 351 351 352 352 351 351 352 353 352 349 351 350 349 346 344 346 349 352 349 349
355 351 350 352 353 352 353 353 351 353 352 353 351 351 353 353 352 351 353 352 353 350 350 352 350 350 349 349 348 352 352 352 352 351 349 347 349 351 350 349 350 350 349
356 354 350 351 352 352 349 353 352 352 351 353 352 353 351 352 353 354 352 352 354 352 354 350 351 351 352 351 350 351 351 351 352 353 354 351 351 353 351 350 350 351 349
350 352 351 352 351 351 351 350 350 353 351 351 353 354 354 353 352 353 352 351 352 352 351 354 351 351 353 352 351 350 352 351 350 352 350 350 349 348 350 352 350 346 349
346 349 349 343 345 349 350 351 351 352 350 351 349 350 351 352 353 353 353 354 353 352 351 352 352 353 351 351 351 351 352 350 347 347 350 351 350 350 352 352 352 353 352
347 349 348 345 338 342 346 348 351 351 353 352 351 352 352 352 351 350 350 353 353 351 351 352 352 351 351 351 351 351 351 349 349 349 351 352 353 353 352 353 353 353 354
346 346 347 346 344 343 341 345 345 347 351 352 350 351 351 350 350 350 349 350 352 351 352 350 351 351 351 349 349 351 350 350 353 353 353 352 352 353 353 351 350 352 353
344 343 344 345 345 346 346 346 346 346 348 350 351 350 350 348 347 347 347 349 350 350 349 347 350 349 347 346 347 348 351 352 351 350 348 348 347 346 349 349 350 352 350
344 343 343 343 343 343 343 342 343 346 346 347 346 343 342 341 342 344 345 349 349 348 348 347 346 338 333 332 335 340 343 340 328 326 332 336 336 338 343 347 345 344 346
346 344 344 344 344 342 341 343 342 343 342 341 335 334 329 333 340 341 348 349 349 346 335 332 327 326 325 324 327 327 322 322 327 338 339 340 340 340 339 336 337 342 342
340 341 341 341 339 338 339 340 340 338 335 332 332 325 322 321 324 335 336 335 335 342 332 327 321 320 321 325 327 325 325 329 333 334 337 332 331 328 329 329 330 332 332
335 336 337 338 339 339 337 338 338 336 335 332 327 319 318 318 318 322 328 328 328 330 327 322 320 320 322 326 325 324 324 327 333 331 327 324 324 324 324 324 324 324 325
329 330 331 332 334 335 338 338 336 335 332 329 326 321 321 321 319 318 318 319 321 321 320 316 314 318 321 322 325 326 328 327 325 323 322 322 321 321 321 321 321 321 320
327 328 328 327 326 327 328 326 326 324 326 329 332 325 319 318 318 315 314 314 314 313 310 320 321 321 321 320 320 319 319 318 318 317 317 317 318 318 317 316 318 319 320
321 322 324 325 320 319 319 316 316 314 316 316 319 323 320 317 316 314 306 305 304 308 317 317 318 317 314 312 313 313 313 311 311 310 310 311 311 313 312 312 313 313 313
320 320 319 322 320 318 316 313 310 310 312 316 314 312 311 311 310 305 302 302 306 314 316 313 313 312 311 311 311 310 310 310 309 309 310 311 311 310 309 309 309 308 308
316 316 317 319 320 316 314 311 309 304 303 303 307 310 307 305 301 301 303 308 309 311 313 311 310 309 309 308 308 308 307 306 307 307 307 306 306 305 304 304 303 303 303
314 312 312 312 317 316 314 312 312 306 303 303 300 300 299 299 303 306 307 307 309 309 308 307 307 307 306 306 306 305 304 304 303 303 303 302 301 301 301 300 300 299 300
313 310 310 311 311 311 312 313 313 310 311 305 302 301 301 302 306 308 308 309 307 307 306 305 305 305 304 304 303 302 302 301 301 301 300 300 299 298 298 298 298 298 298
311 309 309 309 309 309 309 310 310 313 310 307 305 305 305 306 307 307 306 306 305 305 304 304 303 303 302 301 300 300 300 299 299 298 298 297 296 296 296 296 296 296 297
310 309 307 307 307 306 307 308 309 309 310 309 307 306 306 307 308 306 305 304 304 304 303 302 302 301 300 299 299 299 298 298 297 296 295 294 294 293 294 295 294 294 295
310 309 307 306 306 307 307 306 307 308 309 307 305 303 303 306 306 305 304 304 303 302 302 301 301 300 299 298 297 297 296 296 295 294 292 291 291 292 292 292 292 293 293
310 309 306 304 305 306 307 306 306 306 307 306 305 303 305 306 305 304 304 303 302 302 301 300 300 299 298 297 296 296 295 294 293 291 290 290 290 290 290 291 291 292 293
311 309 306 305 304 305 306 305 305 306 306 306 305 304 301 305 304 304 303 302 301 301 300 300 299 298 297 297 296 295 294 293 292 291 289 289 289 290 289 290 290 291 294
311 311 309 307 306 305 306 306 305 305 305 306 305 305 305 304 304 303 303 302 301 300 300 299 298 298 297 296 295 294 293 292 291 290 290 290 290 289 289 289 291 294 294
313 310 310 309 307 306 306 306 305 306 305 305 304 305 305 305 305 304 303 302 301 300 300 299 299 298 297 296 295 295 294 293 292 292 292 292 291 290 291 292 293 294 295
Wind_Speed
24 23 19 16 13 10 9 11 8 6 9 18 16 15 13 9 9 8 9 7 6 7 6 5 4 7 10 9 8 11 11 9 3 9 14 15 16 15 18 14 14 16 20
22 23 21 18 15 14 13 11 11 9 10 12 13 14 12 11 10 9 7 6 7 5 5 6 5 5 7 8 10 9 10 9 11 10 16 20 25 19 12 15 17 14 18
20 23 19 18 17 17 13 13 10 11 13 16 14 14 14 13 10 10 10 9 6 8 9 8 8 7 8 7 6 6 9 9 10 11 17 16 19 20 20 19 22 20 21
14 21 22 17 12 12 12 16 12 13 10 11 15 13 13 13 11 11 11 9 9 10 8 7 8 7 5 5 7 7 6 7 8 12 15 17 19 20 19 24 26 26 26
7 21 23 9 18 14 7 8 16 14 11 8 10 11 10 11 11 11 12 10 11 10 9 6 5 6 7 9 11 8 8 10 10 10 12 15 17 21 22 22 22 24 24
11 17 21 16 18 19 19 14 9 10 9 10 9 10 9 8 8 6 9 12 10 11 8 7 6 8 9 11 10 10 11 10 11 11 13 14 17 18 20 20 20 21 10
15 17 17 19 25 22 18 17 14 14 13 10 9 9 6 5 7 8 5 8 6 5 5 7 6 8 9 10 7 9 6 4 4 7 11 12 14 14 16 19 21 19 19
16 14 12 12 12 11 13 12 14 13 11 11 11 9 8 4 7 9 7 8 7 7 6 4 3 4 6 5 4 3 2 2 5 5 7 10 11 11 10 13 16 17 16
9 11 9 9 8 7 10 7 6 9 9 13 11 9 5 4 4 2 1 5 7 5 1 1 1 2 5 6 6 7 5 8 8 8 7 7 8 10 10 10 15 18 13
13 12 11 10 9 9 8 7 7 11 13 12 13 10 8 7 4 6 5 11 12 12 14 11 9 8 8 8 8 9 10 12 14 10 12 14 15 14 14 17 17 14 14
13 13 12 10 9 11 13 11 13 14 15 15 12 11 10 10 10 9 10 14 12 17 12 9 9 8 9 9 9 10 12 13 13 13 14 17 16 19 20 18 18 20 21
19 21 18 15 13 10 12 13 14 13 12 11 13 13 12 10 9 10 12 15 14 15 9 5 4 5 7 8 9 7 8 12 12 17 18 20 21 21 20 19 17 18 17
16 20 18 17 15 12 13 14 13 10 9 13 15 15 12 7 6 7 8 9 6 5 4 5 4 5 6 7 16 11 13 14 14 18 19 19 17 16 14 16 17 18 17
13 14 15 16 13 10 10 10 11 11 7 4 13 14 13 7 7 7 4 3 3 1 4 8 7 10 16 14 13 15 16 16 17 17 16 15 15 18 19 22 21 22 19
12 10 11 10 10 12 12 12 12 13 11 10 14 14 13 6 5 5 5 2 2 6 10 9 8 9 11 14 16 16 15 15 16 17 18 19 20 19 19 20 21 22 19
9 9 9 11 7 5 6 8 9 8 6 6 7 6 7 3 4 5 3 2 5 8 9 13 15 16 17 17 17 18 20 19 18 17 18 18 19 20 21 21 22 23 22
10 8 11 12 13 11 8 6 5 4 3 3 1 4 7 4 2 3 4 7 7 7 14 17 18 18 17 16 16 16 18 16 13 16 17 17 17 18 20 22 22 22 20
5 7 11 7 13 14 10 8 7 8 9 8 6 3 1 3 8 7 4 7 10 16 18 19 18 16 15 13 12 13 15 14 14 14 16 17 17 18 19 20 21 23 23
4 4 4 1 7 9 12 10 11 12 11 12 11 9 8 9 10 11 14 14 18 18 14 14 11 10 9 9 9 10 12 13 13 14 15 15 16 18 18 18 19 19 21
7 5 5 2 7 7 6 8 7 21 19 15 15 15 10 8 9 6 12 15 16 16 12 9 8 7 7 7 9 9 10 11 11 12 12 12 14 14 15 15 16 19 21
10 9 8 4 4 5 6 8 8 12 12 17 18 14 9 6 3 12 10 10 9 8 9 8 6 5 6 7 7 7 8 10 9 9 10 11 13 14 12 13 16 19 16
12 14 10 14 10 6 6 3 3 8 13 23 17 10 12 9 16 14 11 8 8 7 4 5 5 4 4 4 5 6 5 5 8 11 13 14 15 15 15 16 15 15 17
15 17 15 10 14 9 11 10 4 4 7 16 14 11 17 10 17 16 14 12 8 5 7 6 5 3 2 4 4 4 6 7 11 15 15 17 17 16 16 15 15 17 20
17 16 16 13 13 11 13 12 11 8 6 17 14 12 16 11 15 12 11 10 11 8 5 4 2 3 1 2 3 6 7 10 13 14 15 16 17 17 18 17 16 20 24
22 19 17 20 19 18 16 13 13 12 10 12 15 13 15 17 16 16 17 12 9 7 3 3 5 4 6 7 6 7 10 15 13 13 16 18 19 19 16 16 17 21 25
24 22 18 16 21 23 20 17 15 13 18 15 9 15 15 15 16 17 17 13 11 8 8 5 4 6 5 7 8 10 14 11 13 15 17 17 16 17 14 17 20 24 27
Wind_Direction
176 183 192 199 199 203 196 211 222 204 177 196 198 205 208 217 206 229 239 258 304 234 262 297 309 343 339 345 353 358 3 3 346 341 346 340 337 330 329 322 289 332 341
181 189 195 197 202 207 209 213 211 218 213 202 209 210 219 229 239 236 234 264 262 252 256 265 279 280 290 309 317 336 334 345 353 343 323 338 336 355 32 20 20 35 13
183 196 194 200 202 213 212 220 217 217 221 217 212 218 223 224 230 233 246 243 246 258 262 256 265 273 283 281 274 296 318 330 336 336 334 350 6 3 4 359 360 357 350
176 187 189 191 189 215 230 232 222 217 225 221 211 210 220 222 225 238 245 250 252 252 263 278 264 271 260 266 260 276 294 316 334 328 328 329 337 340 351 357 345 342 342
196 186 183 186 215 219 251 251 229 214 221 216 223 222 213 220 226 235 234 241 252 259 256 266 296 277 282 290 284 281 277 295 304 307 315 324 333 341 347 342 342 343 339
180 180 193 217 192 220 233 264 243 213 209 214 221 235 222 222 234 248 248 231 235 241 249 277 289 313 316 297 280 281 291 294 303 307 314 315 315 321 327 332 335 335 326
171 172 177 190 208 206 209 244 249 259 216 216 207 223 202 221 250 250 274 217 216 218 233 261 286 285 278 309 298 268 300 332 306 307 301 314 319 327 325 326 328 322 311
158 156 165 167 184 176 186 200 216 235 220 195 187 171 189 242 273 275 238 222 200 209 227 251 273 303 328 332 330 337 9 343 354 348 333 324 326 335 341 339 340 335 336
168 153 170 180 172 176 184 198 180 189 177 164 159 133 121 107 65 44 206 185 184 173 180 136 47 60 55 42 43 53 43 14 15 4 7 10 356 356 354 0 6 0 356
146 143 153 159 150 147 139 132 139 140 138 137 126 121 111 93 116 82 127 130 125 117 105 92 75 71 65 54 51 52 38 19 12 39 22 8 20 49 49 22 15 357 354
132 136 136 143 147 147 140 138 129 131 135 132 126 115 107 90 92 115 108 112 115 140 121 87 70 57 51 46 43 30 19 9 16 11 41 65 39 36 32 30 25 30 21
120 123 120 121 121 135 142 146 144 146 145 141 127 112 97 90 91 105 113 107 112 126 115 86 73 51 41 28 32 3 360 13 45 65 51 39 32 30 27 24 10 359 355
104 93 106 113 116 112 126 149 144 139 138 149 150 141 134 108 98 108 112 110 119 100 64 45 42 70 35 54 68 73 85 80 67 53 39 35 31 23 9 1 359 356 3
120 111 94 98 92 95 106 100 118 114 116 152 198 166 150 134 85 80 68 92 139 86 81 76 98 118 92 87 75 65 60 51 49 43 35 20 10 10 10 12 14 8 6
117 123 120 108 90 89 89 83 80 77 81 87 107 152 162 128 70 26 7 357 70 98 106 93 89 79 72 64 62 53 47 41 41 32 24 19 17 12 14 7 3 1 12
142 137 138 154 133 137 131 104 70 62 71 84 78 64 87 63 356 347 345 89 107 113 105 96 89 82 72 66 64 57 49 46 39 34 33 27 31 23 18 14 12 11 4
125 141 159 186 178 169 146 117 126 106 76 56 338 293 309 323 355 130 129 127 103 86 102 97 87 82 75 69 62 56 46 42 36 41 37 34 28 23 14 11 9 5 360
155 142 159 133 160 196 185 169 161 146 133 95 70 59 130 142 123 102 104 126 86 99 95 88 83 79 73 65 53 48 41 37 38 31 26 21 17 19 20 14 7 360 351
184 206 169 155 174 162 154 159 189 172 162 141 124 120 115 116 97 75 77 104 102 95 96 88 84 80 72 62 55 56 47 41 38 38 36 27 14 9 8 7 4 1 355
206 220 210 157 175 183 171 183 195 169 173 162 138 122 122 124 118 114 93 102 105 96 94 91 82 72 67 66 64 54 48 39 35 32 24 12 4 7 1 355 350 348 350
208 219 226 217 174 215 218 243 262 174 164 173 149 147 144 180 209 154 140 108 103 120 118 108 100 84 61 55 52 42 43 37 26 10 3 357 352 351 349 339 333 338 331
216 221 229 228 209 209 212 182 123 170 168 158 159 161 174 157 145 129 125 127 128 110 104 116 94 78 62 49 50 50 48 13 358 357 351 346 346 346 340 330 333 333 332
224 227 215 209 211 224 228 229 224 209 155 174 165 159 169 146 154 149 140 137 134 136 132 131 130 113 27 57 51 8 352 357 351 346 348 348 345 341 339 330 326 327 331
248 244 216 217 225 230 199 195 205 220 202 171 170 166 177 183 176 172 174 172 161 153 161 182 172 157 240 293 309 313 331 341 344 352 350 343 336 328 325 321 319 327 334
230 244 238 225 218 217 209 207 222 229 202 178 170 177 189 182 182 172 172 167 164 163 172 134 161 217 301 328 349 343 343 336 355 351 344 337 330 326 317 319 328 331 327
236 243 255 237 217 211 199 201 213 233 200 203 194 199 193 183 174 171 172 165 162 168 172 195 242 291 320 336 333 329 327 352 1 347 344 343 339 338 335 328 328 321 316